User: anonymous   Login
Location: Edmonton
(53.5500°N, 113.5000°W)
Time: 06:44:55
(UTC-07:00)
Language:

CZ-4C R/B - Orbit

View from above orbital plane
View from above orbital plane
View from above satellite
View from above satellite

Ground track
Ground track

The orbit data is extracted from the following two-line orbital elements,

1 36416U 10009D   16344.72231843 -.00000077 +00000-0 +13467-4 0  9998
2 36416 063.4422 052.0978 0368323 356.8168 003.0530 13.69506149338263
Epoch (UTC): 09 December 2016 17:20:08
Eccentricity: 0.0368323
inclination: 63.4422°
perigee height: 729 km
apogee height: 1273 km
right ascension of ascending node: 52.0978°
argument of perigee: 356.8168°
revolutions per day: 13.69506149
mean anomaly at epoch: 3.0530°
orbit number at epoch: 33826

The dashed part of the orbit path shows where the satellite is in the earth's shadow,  

DLR